Location: Dobrzeń Wielki
(50.7693°N, 17.8414°E)
Time: 13:20:25
(UTC+01:00)

Envisat - Pass Details

Date: 23 October 2019
Orbit: 764 x 766 km, 98.1° (Epoch: 17 November)

Event Time Altitude Azimuth Distance (km) Brightness Sun altitude
Rises 06:20:32 0° 28° (NNE) 3,244 6.6 -10.7°
Reaches altitude 10° 06:23:58 10° 53° (NE) 2,311 6.2 -10.2°
Maximum altitude 06:26:44 15° 86° (E) 2,000 6.5 -9.7°
Drops below altitude 10° 06:29:31 10° 119° (ESE) 2,301 6.7 -9.3°
Sets 06:32:54 0° 143° (SE) 3,221 6.9 -8.8°
